TimePST,TemperatureF,Dew PointF,Humidity,Sea Level PressureIn,VisibilityMPH,Wind Direction,Wind SpeedMPH,Gust SpeedMPH,PrecipitationIn,Events,Conditions,WindDirDegrees,DateUTC
12:25 AM,37.0,33.1,86,30.33,10.0,ESE,5.8,-,N/A,,Overcast,120,2014-01-06 08:25:00
12:53 AM,37.0,33.1,86,30.33,10.0,ESE,5.8,-,N/A,,Overcast,120,2014-01-06 08:53:00
1:53 AM,37.0,33.1,86,30.32,10.0,ESE,5.8,-,N/A,,Overcast,110,2014-01-06 09:53:00
2:53 AM,37.9,34.0,86,30.31,10.0,ESE,6.9,-,N/A,,Overcast,110,2014-01-06 10:53:00
3:30 AM,35.1,32.0,89,30.29,10.0,SSE,6.9,-,N/A,,Mostly Cloudy,150,2014-01-06 11:30:00
3:48 AM,33.8,30.2,87,30.28,10.0,SE,6.9,-,N/A,,Scattered Clouds,130,2014-01-06 11:48:00
3:53 AM,33.1,30.9,92,30.29,10.0,SE,5.8,-,N/A,,Partly Cloudy,130,2014-01-06 11:53:00
4:33 AM,33.1,30.0,89,30.27,10.0,SE,5.8,-,N/A,,Mostly Cloudy,130,2014-01-06 12:33:00
4:53 AM,33.1,30.9,92,30.27,10.0,SE,4.6,-,N/A,,Overcast,130,2014-01-06 12:53:00
5:53 AM,34.0,30.9,89,30.25,10.0,Calm,Calm,-,N/A,,Overcast,0,2014-01-06 13:53:00
6:53 AM,33.1,30.0,89,30.25,10.0,SSW,3.5,-,N/A,,Overcast,210,2014-01-06 14:53:00
7:53 AM,33.1,30.9,92,30.23,10.0,Calm,Calm,-,N/A,,Overcast,0,2014-01-06 15:53:00
8:53 AM,34.0,30.9,89,30.24,10.0,Calm,Calm,-,N/A,,Overcast,0,2014-01-06 16:53:00
9:53 AM,36.0,33.1,89,30.23,10.0,Calm,Calm,-,N/A,,Overcast,0,2014-01-06 17:53:00
10:53 AM,39.0,35.1,86,30.22,10.0,Calm,Calm,-,N/A,,Overcast,0,2014-01-06 18:53:00
11:53 AM,41.0,35.1,79,30.20,10.0,ESE,3.5,-,N/A,,Mostly Cloudy,120,2014-01-06 19:53:00
12:41 PM,41.0,35.1,79,30.17,10.0,East,3.5,-,N/A,,Scattered Clouds,80,2014-01-06 20:41:00
12:53 PM,41.0,35.1,79,30.18,10.0,East,3.5,-,N/A,,Clear,100,2014-01-06 20:53:00
1:53 PM,41.0,34.0,76,30.15,10.0,East,4.6,-,N/A,,Clear,90,2014-01-06 21:53:00
2:53 PM,41.0,34.0,76,30.15,10.0,East,3.5,-,N/A,,Clear,100,2014-01-06 22:53:00
3:53 PM,39.9,34.0,79,30.16,10.0,Calm,Calm,-,N/A,,Clear,0,2014-01-06 23:53:00
4:53 PM,37.9,34.0,86,30.14,10.0,West,3.5,-,N/A,,Partly Cloudy,270,2014-01-07 00:53:00
5:53 PM,37.0,34.0,89,30.14,10.0,SW,4.6,-,N/A,,Clear,230,2014-01-07 01:53:00
6:53 PM,35.1,32.0,89,30.14,10.0,Calm,Calm,-,N/A,,Clear,0,2014-01-07 02:53:00
7:53 PM,34.0,32.0,92,30.13,10.0,SSE,3.5,-,N/A,,Scattered Clouds,160,2014-01-07 03:53:00
8:53 PM,35.1,32.0,89,30.12,10.0,SSW,3.5,-,N/A,,Clear,200,2014-01-07 04:53:00
9:53 PM,34.0,32.0,92,30.12,10.0,SW,3.5,-,N/A,,Scattered Clouds,220,2014-01-07 05:53:00
10:53 PM,34.0,32.0,92,30.12,10.0,Calm,Calm,-,N/A,,Mostly Cloudy,0,2014-01-07 06:53:00
11:53 PM,35.1,33.1,92,30.12,10.0,Calm,Calm,-,N/A,,Overcast,0,2014-01-07 07:53:00